[Date Prev][Date Next][Thread Prev][Thread Next][Date Index][Thread Index]

[jamsat-news:1742] jas2info #288


========================   最新情報   ==============================

        Last updated  24Aug2002  18:10(JST)   #288

====================================================================
   
1)アマチュア通信衛星情報、FOシリーズの軌道要素、テレメトリ、QSOの
   状況等をまとめてみました.
   
 FO−29の2002年8月24日(土)の16:55(JST)のパスでは
JARLのホームページのとうりアナログ運用でした。 今日までの観測した
テレメトリーと最終行の分析結果を報告しておきます。

AS29721C  24Aug2002
17:00-17:16(JST)
AOS   MEL  LOS  Elev
 18   100  179  53.1
Freq. 435.802-.786Hz
(JAS-2 No.107 A 1790-2560)

                                             5E 88 85 G1 76 8E 8C 8D 8D 85 
HI HI AE 07 88 55 00 D4 8F 15 09 45 83 51 54 5D 87 85 90 70 8E 8C 8D 8D 85 
HI HI AE 07 88 55 00 D4 8F 15 09 45 85 52 59 5B 87 84 90 79 8E 8C 8D 8D 85 
HI HI AE 07 88 55 00 D4 8F 15 09 45 87 55 5E 59 87 84 91 6C 8E 8C 8D 8D 85 
HI HI AE 07 88 55 00 D4 8F 15 09 45 88 59 63 57 88 85 91 7B 8E 8C 8D 8D 85 
HI HI AE 07 88 55 00 D4 8F 15 09 45 87 5D 66 55 89 85 92 8A 8E 8C 8D 8E 85 
HI HI AE 07 88 55 00 D4 8F 15 09 45 85 62 6C 51 8A 87 93 7D 8E 8C 8D 8D 85 
HI HI AE 07 88 5H 00 D4 8F 15 09 45 82 67 71 4F 8B 89 96 68 8E 8C 8D 8E 85 
HI HI AE 07 88 55 00 D4 8F 15 09 45 7D 6B 75 4E 8E 8B 98 64 8E 8C 8D 8E 85 
HI HI AE 07 88 55 00 D4 8F 15 09 45 78 6E 75 4D 90 8E 9B 70 8E 8C 8D 8E 85 
HI HI AE 07 88 55 00 D4 8F 15 09 45 71 71 73 4D 92 8E 9C 6E 8E 8D 8D 8E 85 
HI HI AE 07 88 55 00 D4 8F 15 09 45 55 72 71 4D 91 8E 9B 84 8E 8C 8D 8E 85 
HI HI AE 07 88 55 00 D4 8F 15 09 45 56 71 74 4C 92 8E 9B 7B 8E 8C 8E 8E 85 
HI HI AE 07 88 55 00 D4 8F 15 09 45 59 70 78 4B 92 8F 9C 5E 8E 8C 8E 8E 85 
HI HI AE 07 88 55 00 D4 8F 15 09 45 52 6F 79 4A 92 8F 9C 6B 8E 8C 8E 8E 85 
HI HI AE 07 88 55 00 D4 8F 15 09 45 4B 6C 79 4B 93 8E 9C 54 8E 8C 8E 8E 85 
HI HI AE 07 88 55 00 D4 8F 15 09 45 46 6A 76 4E 92 8E 9C 66 8E 8C 8E 8E 85 
HI HI AE 07 88 55 00 D4 8F 15 09 45 43 67 73 4E 91 8D 9B 7F 8E 8C 8E 8E 85 
HI HI AE 07 88 55 00 D4 8F 15 09 45 40 66 75 4D 91 8E 9B 6F 8E 8C 8E 8E 85 
HI HI AE 07 88 55 00 D4 8F 15 09 45 3F 66 79 4A 92 8F 9C 73 8E 8C 8E 8E 85 
HI HI AE 07 88 55 00 D4 8F 15 09 45 3F 66 7A 4A 93 8F 9C 7A 8D 8C 8E 8D 85 
HI HI AE 07 88 55 00 D4 8F 15 09 45 41 68 7A 4B 93 8F 9C 76 8D 8C 8E 8D 85 

AS29720C  24Aug2002
15:16-15:25(JST)
AOS   MEL  LOS  Elev
 50    84  119   5.0
Freq. 435.797-.791Hz
(JAS-2 No.107 A 1310-1790)

HI HI AE C7 88 55 00 D4 00 00 09 00 93 73 7D 5F 91 8D B0 6D 8D 8C 8F 8E 84 
HI HI AE 07 88 55 00 D4 00 00 09 00 93 6D 7A 4A 91 8D 9B 82 8D 8C 8F 8E 84 
HI HI AE 07 88 55 00 D4 00 00 09    84 6C 75 4D 93 8E 9C 61 8D 8C 8F 8E 84 
HI HI AE 07 88 55 00 D4 00 00 09    94 6A 6D 51 91 8D 9A 8A 8D 8C 8F 8E 84 

S29708C  23Aug2002
1751-18:10(JST)
AOS   MEL  LOS  Elev
  9   288  204  28.5
Freq. 435.803-.786Hz
(JAS-2 No.107 A 0-1310)

                                                               8F 8D 8D 85 
HI HI AE 07 88 55 00 D4 56 54 09 12 3E 9F 58 5B 87 84 90 7E 90 8E 8D 8D 85 
HI HI AE 07 88 55 00 D4 56 54 09 12 45 A5 5D 59 89 85 90 7E 91 8E 8D 8D 85 
HI HI AE 07 88 55 00 D4 56 54 09 12 61 A9 5D 49 91 6C 90 7E 8D 8E 8E 8D 85 
HI HI AE 07 88 55 00 D4 56 54 09 12 64 AD 5B                90 8E 8E 8D 85                
HI HI AE 07 88 55 00 D4 56 54 09 12 5D AF 64 55 88 85 91 77 90 8E 8E 8D 85 
HI HI AE 07 88 55 00 D4 56 54 09 12 65 AF 67 58 88 85 92 77 90 8E 8E 8D 85 
HI HI AE 07 88 55 00 D4 56 54 09 12 6E AE 68 53 88 86 92 6B 90 8E 8D 8E 85 
HI HI AE 07 88 55 00 D4 56 54 09 12 76 AB 68 52 8A 87 92 7D 90 8E 8D 8E 85 
HI HI AE 07 88 55 00 D4 56 54 09 12 78 A7 71 51 8C 88 94 7E 90 8E 8D 8E 86  
HI HI AE 07 88 55 00 D4 56 54 09 12 88 A2 72 4E 8D 89 96 7B 90 8E 7D 8E 86 
HI HI AE 07 88 55 00 D4 56 54 09 12 87 9C 72 4D 8F 8B 98 65 90 8E 8D 8E 86  
HI HI AE 07 88 55 00 D4 56 54 09 12 8A 98 72 4E 90 8C 99 7F 90 8E 8D 8E 86 
HI HI AE 07 88 55 00 D4 56 54 09 12 8C 95 73 4D 90 5D 9B 6E 90 8E 8D 8F 86 
HI HI AE 07 88 55 00 D4 56 54 09 12 8C 89 73 4E 91 8D 9B 77 90 8E 8C 8F 86 
HI HI AE 07 88 55 00 D4 56 54 09 12 8C 83 6E 50 91 8D 9A 7E 91 8D 8C 8F 86 
HI HI AE 07 88 55 00 D4 56 54 09 12 8A 7F 69 53 8F 8B 97 5E 91 8D 8C 8F 86 
HI HI AE 07 88 55 00 D4 56 54 09 12 87 7B 64 55 8D 8A 97 84 90 8D 8C 8F 86 
HI HI AE 07 88 55 00 D4 56 54 09 12 83 7A 60 57 8C 88 95 6F 91 8D 8C 8F 85 
HI HI AE 07 88 55 00 D4 56 54 09 12 7F 79 65 55 8C 88 95 79 91 8D 8C 8F 86 
HI HI AE 07 88 55 00 D4 56 54 09 12 7B 7B 6A 53 8C 89 95 9D 90 8D 8C 8F 85 
HI HI AE 07 88 55 00 D4 56 54 09 12 77 7E 6F 4F 8E 8A 97 78 90 8D 8C 8F 85 
HI HI AE 07 88 55 00 D4 56 54 09 12 74 83 75 4C 90 8C 97 

AS29694C  22Aug2002
17:01-17:20(JST)
AOS   MEL  LOS  Elev
359   294  229  56.2
Freq. 435.802-.788Hz
(JAS-2 No.106 B 3370-3932 END)

                                                            8C 8A 91 91 85 
HI HI AE 07 88 55 00 D4 88 D1 09 5E 9B 7E 78 4A 93 8F 9C 52 8C 8A 91 91 85 
HI HI AE 07 88 55 00 D4 88 D1 09 5E 9A 83 77 4B 93 8F 9C 54 8C 8A 91 91 85 
HI HI AE 07 88 55 00 D4 88 D1 09 5E 98 88 77 4B 93 8E 9C 50 8D 8A 91 91 85 
HI HI AE 07 88 55 00 D4 88 D1 09 5E 97 8D 76 4B 93 8E 9B 57 8D 8A 91 91 85 
HI HI AE 07 88 55 00 D4 88 D1 09 5E 95 92 74 4D 92 8E 9B 7E 8D 8A 91 92 85 
HI HI AE 07 88 55 00 D4 88 D1 09 5E 94 96 73 4D 92 8E 9B 9B 8D 8A 90 91 85 
HI HI AE 07 88 55 00 D4 88 D1 09 5E 92 9A 73 4C 92 8D 9B 78 8D 89 90 91 85 
HI HI AE 07 88 55 00 D4 88 D1 09 5E 90 9E 76 4C 92 8E 9B 74 8D 89 90 91 85 
HI HI AE 07 88 55 00 D4 88 D1 09 5E 8F A1 78 4B 93 8F 9C 78 8D 89 90 92 85 
HI HI AE 07 88 55 00 D4 88 D1 09 5E 8D A1 78 52 92 8D 9B 79 8D 89 90 91 85 
HI HI AE 07 88 55 00 D4 88 D1 09 5E 8C A4 7B 4A 94 8F 9C 54 8D 89 90 92 85 
HI HI AE 07 88 55 00 D4 88 D1 09 5E 8A A3 7B 4B 93 8F 9C 73 8D 89 90 91 85 
HI HI AE C7 88 55 00 D4 88 D1 09 5E 89 A2 7B 49 93 8E 9C 6B 8E 8A 8F 92 85 
HI HI AE 07 88 55 00 D4 88 D1 09 5E 88 9F 7B 4A 92 8E 9C 87 8E 8A 8F 92 85 
HI HI AE 07 88 55 00 D4 88 D1 09 5E 87 9A 79 4B 92 8D 9A 54 8E 8A 8F 91 85 
HI HI AE 07 88 55 00 D4 88 D1 09 5E 87 97 7A 4A 93 8F 9C 4E 8E 8A 8F 91 85 
HI HI AE 07 88 55 00 D4 88 D1 09 5E 87 91 77 4C 93 8F 9C 80 8E 8A 8F 91 85 
HI HI AE 07 88 55 00 D4 88 D1 09 5E 87 8A 75 4D 93 8E 9B 75 8E 8A 8F 91 85 
HI HI AE 07 88 55 00 D4 88 D1 09 5E 87 83 70 50 91 8D 9A 6B 8E 8A 8E 91 85 
HI HI AE 07 88 55 00 D4 88 D  09 5E 88 7C 6F 50 91 8D 9A 68 55 8A 8E 91 85  

AS29694C  22Aug2002
17:01-17:20(JST)
AOS   MEL  LOS  Elev
 18    99  181  56.2
Freq. 435.803-.786Hz
(JAS-2 No.106 B 2550-3370)

HI HI AE 07 88 55 00 D4 88 D1 09 5E 61 B3 6E 5D 90 8C 8A 84 6D 88 8D 81 84 
HI HI AE 07 88 55 00 D4 88 D1 09 5E 69 B1 6F 50 90 8C 99 8B 8D 88 8D 91 84 
HI HI AE 07 88 55 00 D4 88 D1 09 5E 71 AF 6D 5O 8F 8B 98 7C 8D 88 8D 90 84 
HI HI AE 07 88 55 00 D4 88 D1 09 5E 78 AC 6D 50 8F 8B 98 83 8D 87 8D 91 84 
HI HI AE 07 88 55 00 D4 88 D1 09 5E 7E A9 72 4E 90 8C 99 92 8D 88 8D 91 84 
HI HI AE 07 88 55 00 D4 88 D1 09 5E 83 A5 77 4B 92 8E 9B 75 8D 87 8E 91 84 
HI HI AE 07 88 55 00 D4 88 D1 09 5E 88 A0 79 4B 93 8E 9C 6E 8D 87 8D 91 84 
HI HI AE 07 88 55 00 D4 88 D1 09 5E 8C 9B 79 49 93 8E 9C 97 8D 87 8E 91 84 
HI HI AE 07 88 55 00 D4 88 D1 09 5E 90 96 79 4C 93 8E 9B 8F 8D 87 8E 91 84 
HI HI AE 07 88 55 00 D4 88 D1 09 5E 92 91 7A 4A 93 8E 9C 92 8D 87 8E 91 84 
HI HI AE 07 88 55 00 D4 88 D1 09 5E 94 8C 77 4C 92 8E 9C 7F 8D 87 8E 91 84 
HI HI AE 07 88 55 00 D4 88 D1 09 5E 96 87 74 4D 92 8E 9B 7F 8D 87 8E 91 84 
HI HI AE 07 88 55 00 D4 88 D1 09 5E 96 82 6F 4F 91 8D 9A 6D 8D 87 8E 91 84 
HI HI AE 07 88 55 00 D4 88 D1 09 5E 97 7D 6B 53 90 8B 98 69 8D 87 8E 91 84 
HI HI AE 07 88 55 00 D4 88 D1 09 5E 97 77 66 54 8E 8A 97 82 8D 87 8E 91 84 
HI HI AE 07 88 55 00 D4 88 D1 09 5E 96 73 65 54 8D 89 96 7C 8D 87 8E 91 84 
HI HI AE 07 88 55 00 D4 88 D1 09 5E 95 6E 65 56 8C 88 95 83 8D 87 8D 91 84 
HI HI AE 07 88 55 00 D4 88 D1 09 5E 95 6A 65 55 8C 88 95 6F 8D 87 8D 91 84 
HI HI AE 07 88 55 00 D4 88 D1 09 5E 94 66 6B 50 8D 89 95 72 8D 87 8D 91 84 
HI HI AE 07 88 55 00 D4 88 D1 09 5E 92 63 71 4E 8F 8A 97 7E 8D 87 8D 91 84 
HI HI AE 07 88 55 00 D4 88 D1 09 5E 90 5E 51 4F 90 8C 99 74 8D 87 8D 91 84 
HI HI AE 07 88 55 00 D4 88 D1 09 5E 90 5C 74 4D 92 8E 9B 76 8D 87 8E 91 84 
HI HI AE 07 88 55 00 D4 88 D1 09 5E 8F 58 76 4D 93 8F 9C 79 8D 87 8E 91 84 
HI HI AE 07 88 55 00 D4 88 D1 09 5E 8E 55 76 4E 93 8F 9C 80 8D 88 8E 90 84 
HI HI AE 07 88 55 00 D4 88 D1 09 5E 8D 53 74 4C 93 8E 9B 81 8D 88 8E 91 84 
HI HI AE 07 88 55 00 D4 88 D1 09 5E 8C 50 72 4E 92 8D 9A 7D 8D 88 8E 90 84 

     
------------------------ FO-29の軌道要素 ------------------------------        
 
  ■ 軌道要素1:「jamsat−keps:1236」より         
          SB KEPS @ AMSAT  $ORB02234.N
          2Line Orbital Elements 02234.AMSAT

HR AMSAT ORBITAL ELEMENTS FOR AMATEUR SATELLITES IN NASA FORMAT
FROM WA5QGD FORT WORTH,TX August 22, 2002
SEND SUBSCRIBE/UNSUBSCRIBE TO majordomo@amsat.org ONLY
BID: ORB02234.N

 DECODE 2-LINE ELSETS WITH THE FOLLOWING KEY:
 1 AAAAAU 00  0  0 BBBBB.BBBBBBBB  .CCCCCCCC  00000-0  00000-0 0  DDDZ
 2 AAAAA EEE.EEEE FFF.FFFF GGGGGGG HHH.HHHH III.IIII JJ.JJJJJJJJKKKKKZ
 KEY: A-CATALOGNUM B-EPOCHTIME C-DECAY D-ELSETNUM E-INCLINATION F-RAAN
 G-ECCENTRICITY H-ARGPERIGEE I-MNANOM J-MNMOTION K-ORBITNUM Z-CHECKSUM

FO-29
1 24278U 96046B   02233.93918823  .00000031  00000-0  69946-4 0 05371
2 24278 098.5180 044.8642 0350995 324.9770 032.8748 13.52847737296889

 ■ 軌道要素2:「jamsat−keps:1235」より 
       SB KEPS @ AMSAT  $ORB02234.O
       Orbital Elements  02234.OSCAR

HR AMSAT ORBITAL ELEMENTS FOR OSCAR SATELLITES
FROM WA5QGD FORT WORTH,TX August 22, 2002
SEND SUBSCRIBE/UNSUBSCRIBE TO majordomo@amsat.org ONLY
BID: ORB02234.O
TO ALL RADIO AMATEURS BT

Satellite: FO-29
Catalog number: 24278
Epoch time:      02233.93918823
Element set:    0537
Inclination:      098.5180 deg
RA of node:       044.8642 deg
Eccentricity:    0.0350995
Arg of perigee:   324.9770 deg
Mean anomaly:     032.8748 deg
Mean motion:   13.52847737 rev/day
Decay rate:        3.1e-07 rev/day^2
Epoch rev:           29688
Checksum:              351

-------------------  FO-29(JAS-2)のテレメトリに関する情報  ---------------------- 
 
